User: anonymous   Login
Location: Unspecified
(0.0000°N, 0.0000°E)
Time: 07:07:59
(UTC+00:00)
Language:

Kiku-1 - Orbit

View from above orbital plane
View from above orbital plane
View from above satellite
View from above satellite

Ground track
Ground track

The orbit data is extracted from the following two-line orbital elements,

1 08197U 75082A   18200.70441226 -.00000111  00000-0  19990-4 0  9990
2 08197  46.9901 317.0706 0085826 335.2386 128.7451 13.59508967129507
Epoch (UTC): 19 July 2018 16:54:21
Eccentricity: 0.0085826
inclination: 46.9901°
perigee height: 974 km
apogee height: 1101 km
right ascension of ascending node: 317.0706°
argument of perigee: 335.2386°
revolutions per day: 13.59508967
mean anomaly at epoch: 128.7451°
orbit number at epoch: 12950

The dashed part of the orbit path shows where the satellite is in the earth's shadow,  

DLR